Showing default

LEMUR 2 REMY-COLTON, 43884

Orbit data source: Space-Track

LEMUR 2 REMY-COLTON, 43884 is a payload satellite owned by Spire/Lux (US) in SSO that was launched on Thu, 27 Dec 2018 UTC via a SOYUZ-2-1A launch vehicle from the Vostochny Cosmodrome (VOSTO). Payloads include a variety of satellites, spacecraft, and rockets equipped with specific instruments for various scientific and technological missions. These include communications satellites like Starlink; space stations such as the ISS; scientific satellites like the Hubble; Earth observation satellites from companies like Planet Labs, Umbra, and HawkEye 360; GPS; miniature CubeSats for education and research; and military/defense satellites.

Loading next visibility...
LEMUR 2 REMY-COLTON details
Identifier
43884, 2018-111J
Orbit
SSO
Last TLE update12 hours ago
Origin
Flag of USSpire/Lux (US)
ManufacturerSpire/Glasgow
MissionOperational Commercial Com/MetRO
Bus & MotorCUBESAT 3U, Unknown motor
Mass4.6 kg wet, 4.6 kg dry
Launch date (UTC)
2018-12-27 (6 years ago)
Launch vehicle
SOYUZ-2-1A
Launch site
Vostochny Cosmodrome (VOSTO)
Object type
Payload
Rocket body
Debris
Shape & HBRBox + 2 Pan, 0.7 m
Radar Cross Section0.124 m², Medium (>0.1 m² and < 1m²)

Expand to show TLE details & history

TLE from 12 hours ago
0 LEMUR 2 REMY-COLTON
1 43884U 18111J   24361.30711233  .00081113  00000-0  18547-2 0  9996
2 43884  97.6233 279.5448 0003784  72.6860 287.4800 15.42522536327218
Epoch: 2024-12-26T07:22Z
Definitive object data (Epoch: 2024-12-26T07:22:14.505Z)
Latitude-0.00005°
Longitude73.69598°
Altitude441.008 km
Speed7.648 km/s
True Right ascension18h 38m 10s
True Declination0° 00' 00"
Sunlit
Object was in daylight at TLE epoch
Visualization TLE readout
Latitude-28.5668°
Longitude-109.94578°
Altitude451.152 km
Speed7.639 km/s
Apparent Right ascension06h 27m 44s
Apparent Declination-33° 52' 52"
Sunlit
Object is in full shadow
Visualization observer readout
Local Sidereal Time18:32:48
Azimuth9.913° NNE
Elevation-83.881°
Doppler factor1
Orbital elements
Apogee altitude438.191 km
Perigee altitude433.034 km
Semi-major axis6,813.75 km
Eccentricity0.0003784
Inclination97.6233°
RAAN279.5448°
Arg. of periapsis72.686°
True anomaly287.43864°
Mean anomaly287.48°
Eccentric anomaly287.45932°
Mean motion3.8589 °/min
BSTAR0.0018547
Orbital period93.29 mins
Loading maneuver chart data...
Loading historical data...
Loading historical data...
Loading historical data...
Loading historical data...
Loading historical data...
Loading historical data...
Loading historical data...

LEMUR 2 REMY-COLTON Visibility forecast

Observer location: undefined°, undefined

Span
Click to sort rows by Start time (UTC) header in descending order
Start Az.
Max El. time (UTC)
Max El. Az.
Max El.
End time (UTC)
End Az.
5 mins2024-12-27 07:17:11.668Z32.384° NE2024-12-27 07:20:11.668Z118.587° SE30.611°2024-12-27 07:22:11.668Z163.966° S
|